Temp
-1 -1 -1 -1 -0 -0 0 0 0 -0 -0 -0 -0 -0 -0 0 1 1 1 1 2 3 3 4 4 5 5 5 5 6 6 6 7 7 8 8 8 8
-1 -1 -1 -1 -1 -1 -1 -1 -0 -0 -0 -0 -1 -1 -1 -1 -0 -0 -0 -0 -0 -0 2 3 4 4 4 5 5 5 5 5 6 6 7 7 8 8
-2 -2 -2 -2 -2 -2 -1 -1 -1 -1 -1 -1 -1 -1 -1 -1 -1 -1 -1 -1 -1 -1 -1 1 2 3 4 4 4 4 4 4 5 5 6 6 7 7
-2 -2 -2 -2 -2 -2 -2 -2 -2 -1 -1 -1 -1 -1 -1 -1 -1 -1 -1 -2 -1 -1 -1 -1 1 1 2 3 4 4 4 4 4 5 5 5 5 6
-3 -3 -3 -3 -3 -3 -3 -3 -2 -2 -2 -2 -2 -2 -2 -2 -2 -2 -2 -2 -2 -1 -1 -1 -1 0 0 1 2 3 3 4 3 3 4 5 5 5
-4 -4 -4 -4 -4 -4 -4 -4 -4 -3 -3 -2 -2 -2 -2 -2 -2 -2 -2 -2 -2 -2 -2 -2 -1 -1 -0 -0 1 1 3 3 3 3 3 4 4 4
-5 -5 -5 -5 -5 -4 -5 -5 -5 -4 -4 -3 -3 -3 -3 -3 -3 -3 -3 -3 -3 -2 -2 -2 -2 -2 -1 -0 -0 0 1 1 2 2 2 3 3 4
-6 -6 -5 -5 -5 -5 -5 -5 -5 -5 -5 -5 -4 -3 -3 -3 -3 -3 -3 -3 -3 -2 -3 -2 -2 -2 -2 -2 -1 -0 -0 0 1 2 2 2 2 2
-6 -6 -6 -6 -5 -5 -5 -5 -5 -5 -5 -5 -5 -5 -4 -4 -4 -4 -4 -4 -3 -3 -3 -3 -3 -2 -2 -2 -2 -2 -2 -1 -0 0 2 2 2 1
-6 -6 -6 -6 -6 -6 -6 -6 -6 -5 -5 -5 -5 -5 -4 -4 -4 -4 -4 -4 -4 -3 -3 -3 -3 -3 -3 -3 -3 -3 -2 -2 -1 -0 1 1 1 2
-7 -6 -6 -6 -6 -6 -6 -6 -6 -6 -5 -6 -6 -5 -4 -4 -4 -5 -5 -5 -4 -4 -3 -4 -3 -4 -3 -3 -3 -2 -3 -2 -2 -1 -0 0 1 1
-7 -7 -6 -6 -6 -6 -6 -6 -6 -6 -6 -6 -6 -6 -5 -5 -4 -4 -4 -5 -5 -4 -3 -4 -3 -3 -4 -3 -4 -3 -3 -3 -2 -2 -1 -0 -1 0
-7 -6 -6 -6 -6 -6 -6 -6 -6 -6 -6 -6 -6 -6 -6 -5 -4 -4 -4 -4 -4 -4 -3 -4 -4 -4 -4 -4 -3 -4 -3 -3 -3 -3 -2 -1 -1 -0
-8 -8 -7 -7 -7 -6 -6 -6 -6 -6 -6 -6 -6 -6 -6 -6 -5 -4 -4 -4 -4 -4 -4 -4 -4 -5 -4 -4 -5 -4 -4 -3 -3 -2 -3 -2 -2 -1
-8 -8 -8 -8 -7 -7 -7 -6 -6 -6 -6 -6 -6 -6 -6 -6 -5 -5 -5 -5 -4 -5 -4 -5 -5 -5 -5 -5 -5 -4 -4 -3 -3 -3 -3 -3 -2 -2
-8 -8 -8 -8 -8 -7 -7 -6 -6 -6 -6 -6 -6 -6 -6 -6 -5 -5 -5 -5 -5 -5 -5 -5 -5 -5 -5 -5 -5 -5 -4 -5 -4 -3 -3 -3 -4 -3
-8 -8 -8 -8 -8 -8 -7 -7 -6 -6 -6 -6 -6 -6 -6 -6 -6 -5 -5 -5 -6 -5 -5 -5 -5 -5 -5 -5 -5 -5 -5 -5 -5 -6 -5 -3 -2 -2
-9 -9 -9 -9 -9 -9 -8 -8 -7 -6 -7 -6 -6 -6 -6 -6 -6 -6 -6 -6 -6 -6 -6 -6 -6 -6 -6 -5 -5 -5 -5 -5 -5 -7 -5 -4 -3 -3
-9 -9 -9 -9 -9 -9 -9 -9 -8 -7 -7 -7 -7 -7 -7 -7 -7 -7 -7 -7 -7 -7 -6 -6 -7 -7 -7 -7 -6 -6 -6 -6 -5 -6 -6 -5 -4 -5
-10 -10 -9 -9 -9 -9 -9 -9 -9 -9 -8 -7 -7 -7 -7 -7 -7 -7 -7 -7 -7 -7 -7 -7 -7 -7 -7 -7 -7 -6 -7 -7 -6 -6 -6 -6 -5 -6
-10 -10 -10 -10 -9 -9 -9 -9 -9 -9 -9 -8 -8 -7 -7 -7 -7 -7 -7 -7 -7 -7 -7 -7 -6 -6 -7 -7 -8 -7 -6 -7 -7 -6 -6 -6 -6 -6
-10 -10 -10 -10 -9 -10 -9 -9 -9 -9 -9 -9 -8 -8 -7 -7 -7 -7 -7 -7 -7 -7 -6 -7 -7 -7 -7 -8 -7 -7 -7 -7 -7 -6 -6 -7 -6 -6
-10 -10 -10 -10 -10 -10 -9 -9 -9 -9 -9 -9 -9 -8 -8 -7 -7 -7 -7 -7 -7 -7 -7 -7 -7 -7 -7 -8 -8 -7 -7 -7 -7 -7 -6 -5 -6 -6
Height
1508 1505 1502 1500 1497 1495 1493 1490 1486 1476 1472 1473 1472 1471 1469 1466 1464 1463 1459 1457 1456 1455 1453 1451 1450 1449 1449 1448 1448 1448 1449 1450 1450 1451 1453 1454 1456 1458
1501 1498 1496 1493 1490 1488 1485 1483 1480 1476 1466 1468 1466 1464 1463 1460 1458 1456 1453 1450 1448 1446 1445 1444 1443 1441 1441 1442 1441 1441 1442 1444 1445 1446 1447 1448 1450 1453
1494 1491 1488 1485 1482 1479 1477 1475 1472 1470 1464 1456 1457 1456 1454 1453 1451 1449 1446 1443 1440 1438 1437 1435 1434 1433 1432 1432 1433 1434 1435 1436 1437 1438 1439 1441 1443 1445
1487 1484 1480 1478 1474 1472 1469 1466 1464 1461 1458 1453 1448 1447 1447 1446 1444 1442 1440 1437 1434 1430 1429 1427 1425 1424 1424 1424 1424 1425 1426 1427 1429 1430 1431 1432 1434 1436
1479 1475 1472 1470 1466 1464 1462 1458 1455 1452 1449 1446 1441 1438 1440 1438 1436 1435 1432 1430 1427 1423 1422 1421 1419 1417 1416 1415 1415 1416 1418 1419 1420 1422 1423 1425 1427 1428
1470 1467 1464 1461 1458 1455 1452 1449 1447 1444 1441 1438 1434 1431 1432 1430 1430 1428 1425 1423 1421 1418 1416 1414 1412 1410 1409 1408 1408 1407 1409 1411 1413 1414 1415 1417 1418 1421
1460 1457 1454 1452 1449 1447 1445 1440 1438 1435 1432 1430 1427 1425 1424 1424 1423 1422 1419 1416 1414 1413 1410 1407 1405 1403 1403 1403 1402 1401 1401 1402 1405 1407 1409 1410 1413 1414
1450 1447 1445 1442 1439 1437 1435 1432 1430 1427 1423 1420 1419 1416 1415 1416 1416 1415 1412 1410 1407 1407 1406 1402 1401 1398 1397 1396 1397 1395 1394 1395 1396 1399 1401 1403 1405 1408
1444 1439 1435 1434 1431 1428 1424 1422 1419 1417 1414 1411 1408 1408 1408 1408 1408 1406 1404 1403 1401 1399 1400 1396 1395 1393 1393 1391 1390 1390 1390 1389 1390 1391 1393 1396 1398 1400
1437 1433 1429 1425 1423 1420 1416 1412 1409 1406 1404 1401 1400 1400 1400 1399 1399 1398 1396 1395 1393 1392 1393 1391 1388 1387 1387 1386 1385 1384 1383 1383 1384 1385 1386 1387 1389 1391
1430 1426 1423 1418 1415 1413 1409 1404 1400 1396 1395 1393 1392 1392 1392 1391 1390 1389 1387 1388 1384 1384 1385 1385 1382 1381 1382 1380 1380 1379 1378 1378 1378 1378 1378 1380 1381 1383
1422 1418 1414 1411 1407 1405 1401 1397 1392 1389 1386 1385 1383 1383 1383 1382 1382 1381 1380 1379 1379 1377 1377 1380 1377 1378 1376 1375 1375 1375 1374 1373 1373 1373 1372 1372 1373 1374
1413 1408 1405 1402 1399 1396 1393 1389 1385 1382 1379 1377 1375 1374 1374 1374 1373 1373 1372 1371 1370 1369 1371 1374 1372 1373 1372 1370 1371 1371 1370 1369 1368 1367 1367 1367 1368 1368
1405 1399 1395 1392 1389 1385 1383 1380 1377 1374 1371 1369 1367 1366 1365 1366 1365 1365 1365 1365 1364 1365 1366 1367 1366 1367 1368 1366 1366 1366 1366 1364 1363 1361 1361 1362 1363 1362
1399 1393 1388 1383 1380 1375 1372 1369 1367 1365 1362 1360 1358 1357 1357 1357 1358 1358 1358 1358 1358 1358 1359 1361 1362 1362 1363 1361 1360 1359 1359 1358 1358 1358 1357 1358 1357 1357
1391 1385 1380 1376 1372 1367 1363 1360 1358 1357 1355 1352 1351 1350 1350 1350 1351 1351 1351 1352 1352 1351 1352 1353 1355 1357 1356 1356 1355 1353 1354 1353 1353 1354 1354 1353 1353 1354
1385 1379 1373 1369 1364 1360 1357 1354 1350 1349 1348 1346 1345 1344 1344 1344 1344 1345 1346 1346 1346 1345 1345 1346 1349 1350 1351 1351 1349 1347 1347 1347 1347 1347 1348 1346 1347 1346
1382 1376 1371 1366 1361 1356 1352 1348 1346 1344 1342 1340 1339 1338 1337 1337 1337 1338 1339 1339 1339 1339 1340 1342 1342 1344 1344 1343 1343 1341 1341 1341 1341 1341 1342 1341 1339 1340
1381 1376 1370 1364 1359 1353 1348 1344 1341 1339 1337 1335 1334 1332 1332 1332 1332 1332 1332 1333 1333 1334 1334 1335 1337 1338 1337 1334 1336 1337 1336 1336 1336 1335 1335 1336 1334 1333
1380 1375 1368 1362 1357 1351 1345 1340 1336 1333 1331 1329 1328 1327 1326 1326 1325 1325 1326 1326 1326 1327 1328 1329 1330 1330 1330 1329 1329 1330 1332 1332 1332 1331 1331 1330 1329 1329
1379 1373 1367 1361 1355 1349 1343 1337 1332 1328 1325 1323 1322 1321 1320 1320 1319 1319 1319 1320 1320 1320 1320 1321 1322 1324 1324 1325 1323 1321 1322 1324 1325 1326 1325 1325 1325 1324
1377 1371 1365 1359 1352 1346 1340 1334 1328 1324 1319 1317 1316 1315 1314 1314 1313 1313 1314 1314 1314 1314 1313 1316 1317 1317 1318 1318 1316 1316 1316 1317 1318 1319 1321 1321 1321 1320
1376 1370 1363 1357 1351 1344 1338 1331 1326 1320 1316 1312 1310 1309 1308 1308 1307 1308 1308 1308 1308 1309 1309 1310 1310 1311 1311 1311 1311 1310 1310 1311 1312 1312 1312 1313 1313 1313
Wind_Speed
26 26 25 26 26 27 28 29 31 35 34 31 30 27 28 29 29 30 32 33 39 38 39 39 39 36 33 33 32 29 28 28 27 24 25 26 23 25
28 26 27 28 28 29 30 31 32 34 39 35 33 29 28 28 28 30 35 37 36 34 34 39 40 39 35 32 33 33 31 29 29 29 28 31 30 29
30 31 30 30 32 32 32 33 34 34 35 41 35 31 29 27 28 29 30 35 35 33 31 32 35 35 36 35 32 31 32 32 30 28 28 31 34 33
33 33 34 33 34 33 33 34 34 35 34 34 39 34 29 27 28 29 30 32 33 35 31 31 32 34 36 35 35 32 31 31 31 30 29 30 32 34
34 34 35 33 35 34 34 34 35 34 33 33 36 39 31 29 27 27 28 30 31 32 27 27 28 27 30 32 35 34 32 31 31 31 31 29 29 30
35 36 36 35 35 35 34 34 34 34 36 37 35 36 31 30 27 26 28 28 29 28 29 28 28 29 31 31 31 32 33 31 31 31 32 30 29 29
37 37 36 35 35 35 35 37 38 38 38 36 34 33 31 30 27 25 26 28 27 27 29 27 25 24 32 29 22 21 26 29 29 30 31 30 28 27
38 38 35 36 36 32 32 34 35 37 40 40 36 32 32 32 31 29 29 27 25 27 25 27 24 23 24 22 22 24 23 19 26 29 33 31 29 29
37 38 38 34 33 35 35 34 35 35 38 40 40 36 36 34 33 32 31 31 31 31 25 26 25 26 24 23 26 25 27 30 28 26 33 34 32 31
35 36 37 36 33 32 33 36 38 38 38 37 30 32 33 32 28 30 31 31 33 34 30 29 30 26 22 23 25 22 24 28 27 31 33 31 32 32
34 33 33 35 33 30 32 35 37 39 36 32 31 32 35 32 28 32 34 32 33 35 31 24 28 25 21 25 23 16 15 17 17 23 27 34 33 32
36 35 32 31 32 32 34 36 38 37 36 33 31 29 31 30 27 26 27 31 30 27 29 22 24 21 17 16 11 9 17 13 16 15 17 23 25 29
40 41 39 34 32 32 32 33 35 34 33 33 33 31 30 30 29 28 28 28 29 32 29 19 22 19 20 22 24 22 19 17 14 14 16 15 18 19
40 41 39 38 37 37 34 36 35 33 33 33 32 31 30 29 30 28 27 25 25 26 26 24 24 24 24 23 25 26 24 24 20 15 14 20 13 12
35 36 36 35 36 36 33 32 29 29 30 31 32 33 31 29 28 26 25 24 23 22 25 23 23 23 22 25 28 29 29 29 26 16 11 15 17 17
38 38 38 36 34 33 31 29 28 30 30 29 32 30 28 26 26 23 24 23 21 23 22 27 23 23 25 26 29 33 31 28 28 22 18 17 18 17
33 34 33 30 29 29 27 29 31 22 23 24 26 28 25 27 28 23 23 22 21 23 23 21 22 23 26 28 32 35 33 32 28 20 20 21 20 19
27 27 27 27 27 28 28 26 23 23 23 23 23 23 23 22 23 23 23 21 21 22 23 21 21 23 26 31 30 32 32 31 30 24 23 21 25 20
24 25 26 27 28 27 27 25 27 24 22 21 21 22 23 23 22 20 21 22 22 24 23 22 26 25 27 27 24 24 26 25 24 21 21 19 25 23
25 26 27 26 27 27 27 26 25 26 25 23 21 20 20 20 20 21 22 23 24 24 26 26 25 24 24 29 29 30 22 22 21 20 18 21 21 21
25 27 27 27 27 27 26 25 25 24 24 24 24 22 21 20 20 21 21 21 20 25 27 26 24 20 21 22 27 30 27 24 28 29 26 24 21 23
25 26 26 27 27 26 26 25 26 25 22 21 22 21 22 22 21 19 19 19 19 20 21 22 23 20 21 24 28 29 28 23 19 18 18 22 22 15
25 26 26 26 26 27 27 27 26 26 24 21 21 23 20 20 21 18 18 18 19 19 19 20 20 21 22 23 24 23 23 23 21 25 26 22 23 25
Wind_Direction
300 294 290 288 285 282 279 280 282 292 291 295 294 294 292 286 284 281 285 287 272 278 281 278 285 286 276 270 268 266 264 262 261 253 252 256 252 260
301 294 287 283 283 282 280 278 278 281 286 288 290 289 290 288 286 281 284 287 289 290 281 276 279 278 278 271 266 263 263 263 259 256 254 251 257 253
291 291 289 287 284 282 281 279 278 276 275 282 284 287 288 287 285 283 280 288 294 289 289 285 278 274 272 271 266 261 259 260 262 261 256 249 248 251
290 289 288 289 286 284 282 279 277 275 271 274 282 284 284 285 284 282 282 279 291 292 287 283 281 273 268 268 266 261 258 258 259 260 260 256 253 251
287 287 287 286 284 282 281 280 278 276 271 270 275 280 282 285 285 285 282 280 286 292 296 289 289 283 280 273 267 263 258 256 255 258 260 260 258 257
286 286 286 286 285 284 282 281 281 279 274 270 269 274 278 281 281 281 283 281 280 285 286 282 277 273 270 267 265 267 262 257 254 254 255 257 258 257
294 290 288 287 286 283 282 284 281 279 275 273 270 270 274 278 278 283 281 282 281 280 286 293 298 287 271 274 275 269 268 262 253 250 248 251 253 254
296 295 292 290 291 287 283 282 279 279 277 273 267 266 272 276 279 277 279 281 281 282 280 283 287 285 275 266 267 259 261 254 247 244 243 245 252 258
295 296 295 293 290 288 289 285 281 279 276 273 267 264 271 274 276 277 274 275 277 282 281 283 284 282 279 279 271 270 269 263 259 251 246 241 248 257
295 294 292 292 291 291 290 289 288 286 285 273 270 272 276 279 277 274 273 274 274 276 273 271 278 275 278 277 280 282 273 268 261 252 252 251 249 252
298 293 292 292 292 290 289 288 292 291 286 279 274 272 276 278 277 271 270 271 268 274 279 266 276 271 274 279 285 284 275 267 266 262 257 255 258 259
301 297 295 290 289 291 289 289 288 290 293 289 280 274 274 276 278 275 274 268 262 267 271 264 270 271 274 280 269 272 281 286 270 282 272 256 254 253
298 299 296 296 296 292 289 288 289 292 287 285 280 275 272 274 274 274 272 268 260 258 263 261 265 258 257 283 288 296 300 282 277 277 267 248 242 240
302 301 300 297 294 285 284 286 286 289 284 281 280 278 276 273 274 275 273 270 268 262 265 257 260 258 266 278 284 294 294 297 299 287 277 265 261 236
307 306 301 300 297 294 288 295 281 284 284 279 279 280 279 274 273 277 273 271 273 264 258 256 254 259 264 276 287 295 302 301 301 293 278 273 279 277
316 316 309 305 299 301 296 293 290 282 278 278 274 279 282 274 271 275 273 275 274 268 264 254 250 257 265 275 287 290 292 290 289 283 287 282 263 255
315 312 314 315 313 312 307 298 289 289 285 280 276 276 279 274 272 275 268 273 270 269 267 261 253 257 264 275 281 282 285 288 291 289 288 292 288 271
328 331 329 331 324 319 313 307 304 287 288 289 284 283 280 275 275 274 272 265 259 260 256 252 249 254 264 270 270 276 283 284 282 272 281 285 290 280
334 334 334 333 332 325 320 308 298 302 299 291 289 282 281 277 273 265 264 258 260 263 257 247 257 263 270 262 268 274 285 287 285 279 279 280 284 283
346 341 337 333 331 331 328 323 309 295 290 293 291 287 281 278 273 271 263 257 258 262 257 259 263 259 253 256 270 276 269 274 277 272 276 285 280 273
345 344 345 341 336 333 332 327 324 310 300 286 283 289 284 280 276 273 272 268 264 257 253 257 262 271 271 268 268 272 277 276 259 261 274 277 273 273
343 342 342 343 344 340 336 331 331 326 317 296 277 285 280 277 271 269 270 272 270 268 250 259 262 254 261 258 263 269 275 280 269 254 266 266 264 258
346 346 346 345 343 344 344 343 338 334 324 312 290 274 283 274 270 266 266 270 273 271 268 268 264 266 259 264 266 269 271 270 264 270 273 255 259 247